Погода в Семипалатинске

Погода в Семипалатинске : погода сейчас, прогноз погоды и архив. Всё, что Вы хотите узнать о погоде в Семипалатинске!

Хотите узнать прогноз погоды в Семипалатинске? Тогда Вам сюда: Погода в Семипалатинске

Поиск расширенной информации на нашем сайте:

Другие новости

Новости СМИ2

Главная страница сайта

Новости сайта

03.07.2017

Напоминаем, что на нашем специализированном сайте Метеоцентр.Азия вы можете получить высокодетализированные автоматические прогнозы погоды по пунктам России, СНГ и мира в авиационном формате (включающие направление и скорость ветра, видимость, явления погоды, количество и форму облачности, нижнюю и верхнюю границу облачности).

Рекомендуем: игры драки на http://proxgame.com

Погода в Семипалатинске - сегодня

Время (UTC), дата Ветер
(°,м/с) 
Видим.   Явления Облачность Т
(°С)
Тd
(°С)
f(%) Тe
(°С)
Pmin
(гПа)
dP
(гПа)
Po
(мм)
O2
(г/м3)
Тmin Tmax R s Состояние
почвы
06 15.06.18 тихо ()   10 км    1/0 верхняя 
[Ci fib]
+22.4 +10 45 +24  1012.3  -1.2  742  275  +7.4         
09 15.06.18 090 (В) 10 км    5/0 верхняя 
[Ci fib]
+24 +7 34 +24  1010.7  -1.6  741  273           
12 15.06.18 360 (С) 10 км    3/0 верхняя 
[Ci fib]
+25.3 +4.5 26 +25  1010.1  -0.4  741  273           
15 15.06.18 030 (СВ) 10 км    4/0 верхняя 
[Ci fib]
+21.3 +16.6 75 +33  1010.6  0.3  741  273    +25.7       
18 15.06.18 070 (В) н/о    ясно 
+14.4 +12.2 87 +20  1011.6  0.4  741  281    +25.7       
21 15.06.18 060 (СВ) н/о    6/4 1000 м средняя 
[Sc|Ac trans]
+13.2 +11.3 88 +17  1011.7  741  283           
00 16.06.18 090 (В) 10 км    8/3 1000 м средняя, верхняя 
[Sc|Ac trans|Ci fib]
+13.7 +9.4 75 +16  1011.5  -0.2  741  283           
06 16.06.18 160 (Ю) 10 км    8/1 1500 м средняя, верхняя 
[Cu med, cong|Ac trans|Ci fib]
+27.9 +9.2 31 +28  1009.4  -1  741  269  +12.1         
09 16.06.18 200 (Ю) 10 км    6/6 1500 м 
[Cu hum]
+28.8 +8.3 28 +29  1008.8  -0.5  740  268           
12 16.06.18 310 (СЗ) 10 км    6/6 1000 м 
[Sc]
+27.6 +9.8 33 +29  1009.4  0.5  741  269           
15 16.06.18 110 (В) 10 км    9/9 1000 м 
[Sc]
+22.5 +15.2 63 +32  1010.1  0.4  741  273    +29.5       
18 16.06.18 тихо ()   н/о    6/6 1000 м 
[Sc]
+19.9 +13.5 67 +26  1010  -0.4  741  275    +29.5       
21 16.06.18 тихо ()   н/о    1/1 1000 м 
[Sc]
+15.4 +12.1 81 +20  1009  -1.3  740  280           
00 17.06.18 110 (В) 10 км    ясно 
+16.7 +11 69 +21  1008.2  -0.7  739  279           
06 17.06.18 140 (ЮВ) 10 км    3/1 1000 м средняя 
[Cu med, cong|Ac trans]
+31.2 +10.2 27 +33  1004.2  -1.8  737  265  +13.9         
09 17.06.18 180 (Ю) 10 км    6/4 1000 м верхняя 
[Cu med, cong|Ci fib]
+33.2 +9.4 23 +34  1002  -2  735  263           
12 17.06.18 110 (В) 10 км    4/4 1000 м 
[Cu med, cong]
+31.9 +11.4 28 +35  1000.9  -1.2  735  263           
15 17.06.18 090 (В) 10 км    3/3 1000 м 
[Sc diur, vesp]
+23.9 +14 54 +31  1001.4  -0.1  734  269    +33.7       
18 17.06.18 090 (В) н/о    ясно 
+18.9 +12.6 67 +25  1001.2  -0.5  734  274    +33.7       
21 17.06.18 тихо ()   н/о    ясно 
+14.8 +12.3 85 +20  1000.6  -0.9  733  278           
00 18.06.18 тихо ()   10 км    ясно 
+16.1 +11.5 74 +20  1000.4  -0.1  733  277           
06 18.06.18 200 (Ю) 10 км    4/3 1500 м средняя, верхняя 
[Cu hum|Ac trans|Ci fib]
+28.7 +12.7 37 +34  998.4  -0.8  733  265  +12.9         
09 18.06.18 190 (Ю) 10 км    8/4 1000 м средняя, верхняя 
[Cu med, cong|Ac trans|Ci fib]
+31.5 +11.3 29 +35  996.9  -1.2  732  262           
21 18.06.18 тихо ()   н/о    ясно 
+14.5 +12.1 85 +19  998.5  -2.1  732  278           
00 19.06.18 090 (В) 10 км    9/0 средняя, верхняя 
[Ac trans|Ci fib]
+17 +13.9 82 +26  995.9  -2.4  730  274           
Время (UTC), дата Ветер
(°,м/с) 
Видим.   Явления Облачность Т
(°С)
Тd
(°С)
f(%) Тe
(°С)
Pmin
(гПа)
dP
(гПа)
Po
(мм)
O2
(г/м3)
Тmin Tmax R s Состояние
почвы

Для получения пояснительной информации подведите курсор к названию столбца.

ПОГОДА в Семипалатинске - архив

Всё, что Вы хотите узнать о погоде в Семипалатинске - удобно и подробно!

Выберите нужную дату (начиная с 1 января 2015* года) и нажмите кнопку "Найти".
Будут отображены архивные сводки погоды по пункту Семипалатинск, начиная с указанной даты.


Отображать данные в формате CSV (для использования в таблицах Excel)


Внимание! Наш архив погоды предназначен исключительно для личного некоммерческого использования в познавательных целях. Если Вам необходимы официальные справки о состоянии погоды (для производственных, юридических, коммерческих и т.п. целей), обращайтесь в органы Росгидромета.

*Примечание: данная дата относится к архиву по метеостанциям СССР (Россия, СНГ, Балтия).
Архив по метеостанциям Зарубежной Европы и Азии (кроме Китая) хранится 10 дней, по другим регионам земного шара (Китай, Африка, Америка, Австралия, Океания) - 1 день.

Семипалатинск - район местоположения метеостанции


Название, широта, долгота, высота метеостанции:
Семипалатинск 50.4°ш. 80.3°д. 196 м над ур. моря [Казахстан]

Дополнительная информация

В oтличие oт бoльшинства пoгoдных сайтoв мы публикуем пoдрoбную метеoинфoрмацию в детальнoм прoфессиoнальнoм фoрмате.

Характеристики температуры и влажнoсти вoздуха измеряются на высoте 2 м в тени вдали oт зданий и деревьев.
Скoрoсть ветра измеряется на высoте 10 м (на урoвне рoста челoвека скoрoсть ветра ниже в 1.5-2 раза). Если метеoстанция нахoдится в гoрoде или в лесу, тo скoрoсть ветра занижена на 2-4 м/с пo сравнению с oткрытым местoм. Скoрoсть ветра над акватoриями крупных рек и oзёр, а также на вершинах хoлмoв на 2-5 м/с выше, чем в oбычных услoвиях.
Атмoсфернoе давление в разных тoчках местнoсти мoжет значительнo oтличаться oт давления на метеoстанции, в зависимoсти oт услoвий рельефа (при пoдъёме на 10 м давление пoнижается примернo на 1 мм рт.ст.).